Погода в Крестище

Россия / Курская область     51°45′58″N   37°33′36″E
темп.,
°C
ветер,
м/с
пор.,
м/с
влажн.,
%
обл.,
%
осадки,
мм/ч
давл.,
гПа
погр.,
м
3 августа, вт
вт300:00+18юв3388100 1.6 100966
03:00+18ююз3692100 2.0 1009151
06:00+19зюз369158 0.1 1010205
09:00+22зсз457315 0.2 1011573
12:00+26з564823 0.0 10111689
15:00+28з6738100 0.0 10102259
18:00+23сз77530 0.0 1012951
21:00+18ссз22740 0.0 101414
4 августа, ср
ср400:00+16ссз36810 0.0 101497
03:00+14ссз22842 0.0 101521
06:00+15ссз228047 0.0 101648
09:00+20зсз345999 0.0 1017472
12:00+24зсз344314 0.0 10171849
15:00+22сз5645100 0.0 1016761
18:00+23ссз55385 0.0 10171730
21:00+17ссз33560 0.0 101834
5 августа, чт
чт500:00+15ссв226548 0.0 101811
03:00+14всв116723 0.0 101811
06:00+15юв126478 0.0 101912
09:00+22юв224124 0.0 1018492
12:00+26ю3333100 0.0 10171690
15:00+27ю353069 0.0 10162385
18:00+26вюв4634100 0.0 1014376
21:00+23ююв3737100 0.0 1014212
6 августа, пт
пт600:00+22ююв3441100 0.0 101379
03:00+18ююв410505 0.0 1013183
06:00+18ююв410528 0.0 1013188
09:00+25ююв61037100 0.0 1012502
12:00+30ю792657 0.0 10111740
15:00+33ю782540 0.0 10092725
18:00+32ююв582925 0.0 10082018
21:00+23ююв3461100 0.8 100939
7 августа, сб
сб700:00+22юв51551100 0.0 1009256
03:00+22ююв51439100 0.0 1009298
06:00+20ююв4114224 0.0 1010210
09:00+27ю573380 0.0 1010528
12:00+29вюв793595 0.1 1009889
15:00+29ююв4733100 1.0 10101083
18:00+26св4850100 0.4 1008160
21:00+23в4754100 1.5 100889